White Plains, CT

7:18 PM EST on November 14, 2019 (GMT -0500)
Westchester County

Weather History for KHPN - September, 2019

Change the Weather History Date:

Friday, September 27, 2019

  Actual Average Record
Temperature  
Mean Temperature 62 °F -  
Max Temperature 73 °F 66 °F 87 °F (1998)
Min Temperature 51 °F 49 °F 39 °F (1989)
Degree Days  
Heating Degree Days 4    
Growing Degree Days 12 (Base 50)    
Moisture  
Dew Point 51 °F    
Average Humidity 75    
Maximum Humidity 100    
Minimum Humidity 35    
Precipitation  
Precipitation 0.00 in - - ()
Sea Level Pressure  
Sea Level Pressure 30.07 in    
Wind  
Wind Speed 2 mph ()    
Max Wind Speed 8 mph    
Max Gust Speed -    
Visibility 9.1 miles    
Events Fog    
Averages and records for this station are not official NWS values.
T = Trace of Precipitation, MM = Missing Value Source: Averaged Metar Reports

Daily Weather History Graph

Daily Weather History Graph

Search for Another Location

Airport or City:

Astronomy

Sep. 27, 2019 Rise Set
Actual Time 6:47 AM EDT 6:43 PM EDT
Civil Twilight 6:19 AM EDT 7:11 PM EDT
Nautical Twilight 5:47 AM EDT 7:43 PM EDT
Astronomical Twilight 5:15 AM EDT 8:15 PM EDT
Moon 5:03 AM EDT (9/27) 6:34 PM EDT (9/27)
Length of Visible Light 12h 51m
Length of Day
11h 56m
Waning Crescent, 2% of the Moon is Illuminated
Sep 27
Waning Crescent
Sep 28
New
Oct 5
First Quarter
Oct 13
Full
Oct 21
Last Quarter

Hourly Weather History & Observations

Time (EDT) Temp. Dew Point Humidity Pressure Visibility Wind Dir Wind Speed Gust Speed Precip Events Conditions
12:04 AM 57.0 °F 55.0 °F 93% 29.95 in 1.8 mi Calm Calm - N/A   Clear
12:23 AM 55.9 °F 55.0 °F 97% 29.96 in 10.0 mi Calm Calm - N/A   Clear
12:56 AM 57.0 °F 55.0 °F 93% 29.94 in 10.0 mi Calm Calm - N/A   Clear
1:07 AM 55.9 °F 55.0 °F 97% 29.95 in 10.0 mi Calm Calm - N/A Fog Patches of Fog
1:56 AM 55.0 °F 54.0 °F 96% 29.96 in 10.0 mi Calm Calm - N/A Fog Patches of Fog
2:56 AM 55.0 °F 54.0 °F 96% 29.98 in 10.0 mi Calm Calm - N/A   Clear
3:19 AM 54.0 °F 54.0 °F 100% 29.99 in 10.0 mi Calm Calm - N/A Fog Patches of Fog
3:56 AM 53.1 °F 53.1 °F 100% 30.00 in 10.0 mi North 3.5 mph - N/A   Clear
4:37 AM 53.1 °F 52.0 °F 96% 30.02 in 1.0 mi Calm Calm - N/A   Mostly Cloudy
4:56 AM 53.1 °F 52.0 °F 96% 30.02 in 1.0 mi Calm Calm - N/A   Scattered Clouds
5:56 AM 51.1 °F 50.0 °F 96% 30.05 in 10.0 mi Calm Calm - N/A   Clear
6:56 AM 52.0 °F 51.1 °F 97% 30.07 in 10.0 mi Calm Calm - N/A   Clear
7:56 AM 55.0 °F 53.1 °F 93% 30.10 in 10.0 mi NNW 3.5 mph - N/A   Clear
8:56 AM 61.0 °F 51.1 °F 70% 30.13 in 10.0 mi NNW 6.9 mph - N/A   Partly Cloudy
9:56 AM 64.0 °F 48.9 °F 58% 30.15 in 10.0 mi North 4.6 mph - N/A   Partly Cloudy
10:56 AM 66.0 °F 46.9 °F 50% 30.15 in 10.0 mi Calm Calm - N/A   Partly Cloudy
11:56 AM 69.1 °F 46.0 °F 44% 30.14 in 10.0 mi NW 6.9 mph - N/A   Partly Cloudy
12:56 PM 69.1 °F 46.9 °F 45% 30.13 in 10.0 mi WNW 5.8 mph - N/A   Clear
1:56 PM 72.0 °F 43.0 °F 35% 30.11 in 10.0 mi Calm Calm - N/A   Clear
2:56 PM 71.1 °F 46.0 °F 41% 30.09 in 10.0 mi South 8.1 mph - N/A   Clear
3:56 PM 72.0 °F 46.0 °F 40% 30.09 in 10.0 mi SSE 6.9 mph - N/A   Clear
4:56 PM 72.0 °F 45.0 °F 38% 30.09 in 10.0 mi South 6.9 mph - N/A   Clear
5:56 PM 69.1 °F 46.9 °F 45% 30.11 in 10.0 mi SSE 6.9 mph - N/A   Clear
6:56 PM 64.9 °F 48.9 °F 56% 30.12 in 10.0 mi South 5.8 mph - N/A   Clear
7:56 PM 61.0 °F 50.0 °F 67% 30.12 in 10.0 mi Calm Calm - N/A   Clear
8:56 PM 60.1 °F 51.1 °F 72% 30.13 in 10.0 mi Calm Calm - N/A   Clear
9:56 PM 60.1 °F 52.0 °F 75% 30.13 in 10.0 mi South 3.5 mph - N/A   Clear
10:56 PM 59.0 °F 55.0 °F 87% 30.13 in 10.0 mi Calm Calm - N/A   Clear
11:56 PM 57.0 °F 54.0 °F 89% 30.13 in 10.0 mi Calm Calm - N/A   Clear